Change the Weather History Date:

Wednesday, November 28, 2012

  Actual Average Record
Temperature  
Mean Temperature 64 °F 59 °F  
Max Temperature 76 °F 71 °F 90 °F (1953)
Min Temperature 51 °F 47 °F 33 °F (1952)
Degree Days  
Heating Degree Days 1 6  
Month to date heating degree days 35 79  
Since 1 July heating degree days 35 83  
Cooling Degree Days 0 0  
Month to date cooling degree days 114 75  
Year to date cooling degree days 4703 4137  
Growing Degree Days 14 (Base 50)    
Moisture  
Dew Point 40 °F    
Average Humidity 45    
Maximum Humidity 62    
Minimum Humidity 27    
Precipitation  
Precipitation 0.00 in 0.02 in 0.54 in (1939)
Month to date precipitation T 0.48  
Year to date precipitation 1.82 4.81  
Since 1 July precipitation 1.03 1.87  
Snow  
Snow 0.00 in - - ()
Month to date snowfall 0.0  
Year to date snowfall 0.0  
Since 1 July snowfall 0.0  
Snow Depth 0.00 in    
Sea Level Pressure  
Sea Level Pressure 30.07 in    
Wind  
Wind Speed 4 mph (NNW)    
Max Wind Speed 9 mph    
Max Gust Speed 13 mph    
Visibility 10 miles    
Events      
T = Trace of Precipitation, MM = Missing Value Source: NWS Daily Summary

Daily Weather History Graph

Daily Weather History Graph

Search for Another Location

Airport or City:

Trip Planner

Search our weather history database for the weather conditions in past years. The results will help you decide how hot, cold, wet, or windy it might be!

Date:

Astronomy

Nov. 28, 2012 Rise Set
Actual Time 6:30 AM PST 4:37 PM PST
Civil Twilight 6:03 AM PST 5:04 PM PST
Nautical Twilight 5:32 AM PST 5:35 PM PST
Astronomical Twilight 5:02 AM PST 6:05 PM PST
Moon 4:56 PM PST (11/28) 6:31 AM PST (11/28)
Length of Visible Light 11h 01m
Length of Day
10h 06m
Full, 100% of the Moon is Illuminated
Nov 28
Full
Dec 6
Last Quarter
Dec 13
New
Dec 19
First Quarter
Dec 28
Full

Hourly Weather History & Observations

Time (PST) Temp. Dew Point Humidity Pressure Visibility Wind Dir Wind Speed Gust Speed Precip Events Conditions
12:53 AM 57.0 °F 35.1 °F 44% 30.06 in 10.0 mi Calm Calm - N/A   Clear
1:53 AM 55.9 °F 39.0 °F 53% 30.04 in 10.0 mi Calm Calm - N/A   Clear
2:53 AM 55.9 °F 39.9 °F 55% 30.04 in 10.0 mi Calm Calm - N/A   Clear
3:53 AM 57.9 °F 44.1 °F 60% 30.03 in 10.0 mi NW 4.6 mph - N/A   Clear
4:53 AM 57.0 °F 43.0 °F 59% 30.04 in 10.0 mi WNW 5.8 mph - N/A   Clear
5:53 AM 59.0 °F 39.9 °F 49% 30.06 in 10.0 mi NW 4.6 mph - N/A   Clear
6:53 AM 53.1 °F 39.9 °F 61% 30.08 in 10.0 mi Calm Calm - N/A   Scattered Clouds
7:53 AM 61.0 °F 39.9 °F 46% 30.09 in 10.0 mi Calm Calm - N/A   Clear
8:53 AM 66.0 °F 44.1 °F 45% 30.10 in 10.0 mi Calm Calm - N/A   Clear
9:53 AM 70.0 °F 39.0 °F 32% 30.11 in 10.0 mi East 3.5 mph - N/A   Clear
10:53 AM 71.1 °F 37.0 °F 29% 30.09 in 10.0 mi East 6.9 mph - N/A   Clear
11:53 AM 73.9 °F 39.0 °F 28% 30.07 in 10.0 mi Variable 6.9 mph - N/A   Clear
12:53 PM 75.0 °F 39.0 °F 27% 30.05 in 10.0 mi SE 6.9 mph - N/A   Partly Cloudy
1:53 PM 75.9 °F 39.0 °F 26% 30.03 in 10.0 mi SSE 5.8 mph - N/A   Clear
2:53 PM 75.9 °F 39.9 °F 27% 30.03 in 10.0 mi ESE 5.8 mph - N/A   Clear
3:53 PM 73.9 °F 36.0 °F 25% 30.04 in 10.0 mi Calm Calm - N/A   Scattered Clouds
4:53 PM 71.1 °F 37.0 °F 29% 30.05 in 10.0 mi Calm Calm - N/A   Clear
5:53 PM 69.1 °F 41.0 °F 36% 30.06 in 10.0 mi Calm Calm - N/A   Scattered Clouds
6:53 PM 69.1 °F 39.9 °F 35% 30.09 in 10.0 mi North 5.8 mph - N/A   Scattered Clouds
7:53 PM 66.9 °F 39.9 °F 37% 30.08 in 10.0 mi Variable 3.5 mph - N/A   Mostly Cloudy
8:53 PM 63.0 °F 43.0 °F 48% 30.09 in 10.0 mi Calm Calm - N/A   Mostly Cloudy
9:53 PM 64.0 °F 41.0 °F 43% 30.10 in 10.0 mi WNW 4.6 mph - N/A   Clear
10:53 PM 64.0 °F 43.0 °F 46% 30.10 in 10.0 mi WSW 4.6 mph - N/A   Clear
11:53 PM 63.0 °F 41.0 °F 45% 30.10 in 10.0 mi Calm Calm - N/A   Clear